• în România
  • Lista ţărilor
  • Pe 7 zile
  • Temperatura apei
  • Hartă satelitară
  • Meteo pe hartă
  • Widget-uri
  • user-avatar
    Intrare

    Meteo pe oră la Domashkiny Vershiny

    Astăzi, 23 Octombrie, Marţi

    Timp Temperatura Precipitaţii Vânt Presiune Umiditate
    00:00 +3°C° 0 mm 3 m/s 760 mmHg 65%
    01:00 +3°C° 0 mm 3 m/s 759 mmHg 65%
    02:00 +4°C° 0 mm 3 m/s 759 mmHg 65%
    03:00 +3°C° 0 mm 3 m/s 758 mmHg 67%
    04:00 +3°C° 0 mm 3 m/s 758 mmHg 66%
    05:00 +4°C° 0 mm 4 m/s 758 mmHg 65%
    06:00 +4°C° 0 mm 4 m/s 757 mmHg 65%
    07:00 +4°C° 0 mm 4 m/s 757 mmHg 61%
    08:00 +5°C° 0 mm 4 m/s 757 mmHg 57%
    09:00 +6°C° 0 mm 5 m/s 756 mmHg 54%
    10:00 +7°C° 0 mm 5 m/s 755 mmHg 49%
    11:00 +8°C° 0 mm 5 m/s 755 mmHg 45%
    12:00 +9°C° 0 mm 6 m/s 754 mmHg 41%
    13:00 +9°C° 0 mm 5 m/s 753 mmHg 41%
    14:00 +9°C° 0 mm 5 m/s 753 mmHg 42%
    15:00 +9°C° 0 mm 5 m/s 752 mmHg 43%
    16:00 +9°C° 0.1 mm 5 m/s 751 mmHg 48%
    17:00 +8°C° 0.1 mm 6 m/s 751 mmHg 54%
    18:00 +8°C° 0.1 mm 6 m/s 750 mmHg 59%
    19:00 +8°C° 0 mm 5 m/s 750 mmHg 60%
    20:00 +9°C° 0 mm 5 m/s 749 mmHg 60%
    21:00 +9°C° 0 mm 5 m/s 748 mmHg 60%
    22:00 +9°C° 0.1 mm 5 m/s 748 mmHg 62%
    23:00 +10°C° 0.1 mm 4 m/s 747 mmHg 64%

    Mâine, 24 Octombrie, Miercuri

    Timp Temperatura Precipitaţii Vânt Presiune Umiditate
    00:00 +10°C° 0.1 mm 4 m/s 747 mmHg 65%
    01:00 +10°C° 0 mm 4 m/s 747 mmHg 68%
    02:00 +10°C° 0 mm 4 m/s 747 mmHg 70%
    03:00 +10°C° 0 mm 4 m/s 747 mmHg 72%
    04:00 +8°C° 0 mm 4 m/s 746 mmHg 77%
    05:00 +9°C° 0 mm 3 m/s 746 mmHg 82%
    06:00 +8°C° 0 mm 3 m/s 746 mmHg 87%
    07:00 +8°C° 0 mm 4 m/s 746 mmHg 85%
    08:00 +9°C° 0 mm 5 m/s 746 mmHg 83%
    09:00 +10°C° 0 mm 5 m/s 746 mmHg 81%
    10:00 +11°C° 0 mm 6 m/s 745 mmHg 74%
    11:00 +11°C° 0 mm 6 m/s 745 mmHg 68%
    12:00 +13°C° 0 mm 6 m/s 745 mmHg 62%
    13:00 +13°C° 0 mm 6 m/s 745 mmHg 59%
    14:00 +13°C° 0 mm 5 m/s 745 mmHg 55%
    15:00 +14°C° 0 mm 5 m/s 744 mmHg 52%
    16:00 +12°C° 0 mm 5 m/s 744 mmHg 57%
    17:00 +11°C° 0 mm 4 m/s 744 mmHg 62%
    18:00 +10°C° 0 mm 4 m/s 744 mmHg 66%
    19:00 +10°C° 0 mm 4 m/s 744 mmHg 70%
    20:00 +10°C° 0 mm 4 m/s 744 mmHg 73%
    21:00 +9°C° 0 mm 5 m/s 744 mmHg 76%
    22:00 +9°C° 0 mm 5 m/s 744 mmHg 75%
    23:00 +9°C° 0 mm 5 m/s 744 mmHg 74%

    Poimâine, 25 Octombrie, Joi

    Timp Temperatura Precipitaţii Vânt Presiune Umiditate
    00:00 +9°C° 0 mm 6 m/s 743 mmHg 72%
    01:00 +9°C° 0.6 mm 6 m/s 743 mmHg 75%
    02:00 +10°C° 0.6 mm 6 m/s 743 mmHg 78%
    03:00 +10°C° 0.6 mm 6 m/s 743 mmHg 82%
    04:00 +10°C° 0.2 mm 6 m/s 742 mmHg 81%
    05:00 +10°C° 0.2 mm 6 m/s 742 mmHg 81%
    06:00 +10°C° 0.2 mm 6 m/s 741 mmHg 81%
    07:00 +11°C° 0.3 mm 7 m/s 741 mmHg 74%
    08:00 +11°C° 0.3 mm 7 m/s 741 mmHg 67%
    09:00 +11°C° 0.3 mm 7 m/s 740 mmHg 60%
    10:00 +12°C° 0.1 mm 7 m/s 740 mmHg 58%
    11:00 +14°C° 0.1 mm 7 m/s 740 mmHg 56%
    12:00 +14°C° 0.1 mm 7 m/s 739 mmHg 54%
    13:00 +15°C° 0 mm 7 m/s 739 mmHg 56%
    14:00 +16°C° 0 mm 6 m/s 738 mmHg 58%
    15:00 +16°C° 0 mm 6 m/s 738 mmHg 59%
    16:00 +16°C° 0.1 mm 5 m/s 738 mmHg 64%
    17:00 +15°C° 0.1 mm 4 m/s 737 mmHg 68%
    18:00 +16°C° 0.1 mm 3 m/s 737 mmHg 72%
    19:00 +14°C° 0.1 mm 3 m/s 737 mmHg 75%
    20:00 +13°C° 0.1 mm 3 m/s 737 mmHg 79%
    21:00 +13°C° 0.1 mm 3 m/s 737 mmHg 82%
    22:00 +12°C° 0.5 mm 3 m/s 737 mmHg 85%
    23:00 +13°C° 0.5 mm 2 m/s 737 mmHg 88%

    26 Octombrie, Vineri

    Timp Temperatura Precipitaţii Vânt Presiune Umiditate
    00:00 +13°C° 0.5 mm 2 m/s 737 mmHg 91%
    01:00 +11°C° 1.8 mm 3 m/s 737 mmHg 90%
    02:00 +11°C° 1.8 mm 3 m/s 738 mmHg 89%
    03:00 +10°C° 1.8 mm 4 m/s 738 mmHg 88%
    04:00 +8°C° 0.4 mm 4 m/s 738 mmHg 85%
    05:00 +8°C° 0.4 mm 4 m/s 739 mmHg 81%
    06:00 +7°C° 0.4 mm 4 m/s 739 mmHg 77%
    07:00 +7°C° 0 mm 4 m/s 740 mmHg 74%
    08:00 +8°C° 0 mm 4 m/s 741 mmHg 71%
    09:00 +8°C° 0 mm 5 m/s 741 mmHg 68%
    10:00 +8°C° 0 mm 5 m/s 742 mmHg 64%
    11:00 +9°C° 0 mm 5 m/s 742 mmHg 60%
    12:00 +10°C° 0 mm 5 m/s 743 mmHg 56%
    13:00 +10°C° 0 mm 5 m/s 743 mmHg 55%
    14:00 +9°C° 0 mm 5 m/s 743 mmHg 55%
    15:00 +10°C° 0 mm 4 m/s 743 mmHg 55%
    16:00 +10°C° 0.1 mm 4 m/s 743 mmHg 58%
    17:00 +8°C° 0.1 mm 4 m/s 744 mmHg 62%
    18:00 +7°C° 0.1 mm 4 m/s 744 mmHg 65%
    19:00 +7°C° 0.1 mm 4 m/s 745 mmHg 67%
    20:00 +6°C° 0.1 mm 4 m/s 745 mmHg 68%
    21:00 +5°C° 0.1 mm 4 m/s 745 mmHg 70%
    22:00 +5°C° 0 mm 4 m/s 746 mmHg 72%
    23:00 +4°C° 0 mm 4 m/s 746 mmHg 73%

    27 Octombrie, Sâmbătă

    Timp Temperatura Precipitaţii Vânt Presiune Umiditate
    00:00 +3°C° 0 mm 3 m/s 747 mmHg 75%
    01:00 +3°C° 0 mm 3 m/s 747 mmHg 77%
    02:00 +2°C° 0 mm 3 m/s 747 mmHg 80%
    03:00 +2°C° 0 mm 3 m/s 748 mmHg 82%
    04:00 +2°C° 0 mm 3 m/s 748 mmHg 82%
    05:00 +1°C° 0 mm 3 m/s 748 mmHg 83%
    06:00 +1°C° 0 mm 3 m/s 749 mmHg 83%
    07:00 +2°C° 0 mm 3 m/s 749 mmHg 77%
    08:00 +3°C° 0 mm 4 m/s 749 mmHg 71%
    09:00 +3°C° 0 mm 5 m/s 750 mmHg 64%
    10:00 +3°C° 0 mm 5 m/s 750 mmHg 61%
    11:00 +5°C° 0 mm 5 m/s 750 mmHg 57%
    12:00 +5°C° 0 mm 6 m/s 750 mmHg 54%
    13:00 +5°C° 0.1 mm 6 m/s 751 mmHg 56%
    14:00 +5°C° 0.1 mm 6 m/s 751 mmHg 59%
    15:00 +4°C° 0.1 mm 6 m/s 751 mmHg 61%
    16:00 +5°C° 0 mm 5 m/s 752 mmHg 63%
    17:00 +3°C° 0 mm 5 m/s 752 mmHg 64%
    18:00 +3°C° 0 mm 4 m/s 753 mmHg 66%
    19:00 +3°C° 0 mm 4 m/s 753 mmHg 68%
    20:00 +2°C° 0 mm 3 m/s 754 mmHg 71%
    21:00 +2°C° 0 mm 3 m/s 754 mmHg 73%
    22:00 +2°C° 0 mm 3 m/s 754 mmHg 75%
    23:00 0°C° 0 mm 4 m/s 755 mmHg 77%

    28 Octombrie, Duminică

    Timp Temperatura Precipitaţii Vânt Presiune Umiditate
    00:00 0°C° 0 mm 4 m/s 755 mmHg 79%
    01:00 +1°C° 0 mm 5 m/s 755 mmHg 79%
    02:00 +1°C° 0 mm 5 m/s 754 mmHg 78%
    03:00 +1°C° 0 mm 6 m/s 754 mmHg 78%
    04:00 +2°C° 0.1 mm 7 m/s 753 mmHg 77%
    05:00 +1°C° 0.1 mm 8 m/s 753 mmHg 75%
    06:00 +2°C° 0.1 mm 8 m/s 752 mmHg 74%
    07:00 +3°C° 0.2 mm 9 m/s 752 mmHg 74%
    08:00 +3°C° 0.2 mm 10 m/s 752 mmHg 75%
    09:00 +5°C° 0.2 mm 10 m/s 751 mmHg 75%
    10:00 +6°C° 0.9 mm 10 m/s 751 mmHg 78%
    11:00 +6°C° 0.9 mm 9 m/s 751 mmHg 80%
    12:00 +7°C° 0.9 mm 9 m/s 751 mmHg 83%
    13:00 +8°C° 0.8 mm 9 m/s 751 mmHg 85%
    14:00 +9°C° 0.8 mm 8 m/s 751 mmHg 86%
    15:00 +10°C° 0.8 mm 8 m/s 751 mmHg 87%
    16:00 +10°C° 0.3 mm 8 m/s 751 mmHg 86%
    17:00 +10°C° 0.3 mm 7 m/s 752 mmHg 85%
    18:00 +10°C° 0.3 mm 7 m/s 752 mmHg 84%
    19:00 +9°C° 0.1 mm 6 m/s 753 mmHg 82%
    20:00 +8°C° 0.1 mm 6 m/s 754 mmHg 81%
    21:00 +8°C° 0.1 mm 5 m/s 754 mmHg 80%
    22:00 +7°C° 0 mm 5 m/s 755 mmHg 79%
    23:00 +7°C° 0 mm 4 m/s 756 mmHg 79%

    29 Octombrie, Luni

    Timp Temperatura Precipitaţii Vânt Presiune Umiditate
    00:00 +6°C° 0 mm 4 m/s 756 mmHg 78%
    01:00 +7°C° 0 mm 3 m/s 757 mmHg 78%
    02:00 +5°C° 0 mm 3 m/s 757 mmHg 78%
    03:00 +5°C° 0 mm 3 m/s 758 mmHg 77%
    04:00 +6°C° 0.1 mm 2 m/s 758 mmHg 77%
    05:00 +5°C° 0.1 mm 2 m/s 759 mmHg 77%
    06:00 +5°C° 0.1 mm 2 m/s 759 mmHg 77%
    07:00 +5°C° 0 mm 2 m/s 760 mmHg 73%
    08:00 +6°C° 0 mm 2 m/s 760 mmHg 70%
    09:00 +6°C° 0 mm 2 m/s 761 mmHg 66%
    10:00 +7°C° 0 mm 1 m/s 761 mmHg 64%
    11:00 +7°C° 0 mm 1 m/s 761 mmHg 61%
    12:00 +7°C° 0 mm 1 m/s 762 mmHg 58%
    13:00 +8°C° 0 mm 1 m/s 762 mmHg 58%
    14:00 +8°C° 0 mm 1 m/s 762 mmHg 57%
    15:00 +8°C° 0 mm 1 m/s 762 mmHg 57%
    16:00 +8°C° 0.1 mm 1 m/s 762 mmHg 60%
    17:00 +6°C° 0.1 mm 2 m/s 763 mmHg 64%
    18:00 +6°C° 0.1 mm 2 m/s 763 mmHg 67%
    19:00 +5°C° 0.1 mm 3 m/s 763 mmHg 69%
    20:00 +5°C° 0.1 mm 3 m/s 763 mmHg 71%
    21:00 +5°C° 0.1 mm 3 m/s 763 mmHg 73%
    22:00 +5°C° 0 mm 3 m/s 763 mmHg 75%
    23:00 +4°C° 0 mm 3 m/s 763 mmHg 77%
    Arată mai mult